Погода в Ляковой

Россия / Новгородская область     58°17′31″N   32°37′03″E
темп.,
°C
ветер,
м/с
пор.,
м/с
влажн.,
%
обл.,
%
осадки,
мм/ч
давл.,
гПа
погр.,
м
8 марта, пн
пн800:00−6сз71292100 0.6 9941208
03:00−8ссз51192100 0.8 997766
06:00−9ссз41094100 0.1 1000549
09:00−9с5988100 0.2 1003701
12:00−8с4782100 0.1 1006709
15:00−7ссз5879100 0.1 1009819
18:00−9с388378 0.0 1011599
21:00−13с399449 0.0 1014323
9 марта, вт
вт900:00−15с249750 0.0 1015110
03:00−17с239854 0.0 101759
06:00−19с259637 0.0 1018141
09:00−19с249018 0.0 1020236
12:00−14с23732 0.0 1021507
15:00−12с24721 0.0 1022630
18:00−14ссв25840 0.0 1023193
21:00−18св25940 0.0 1026103
10 марта, ср
ср1000:00−20всв25950 0.0 1027136
03:00−21в23940 0.0 102982
06:00−22в22930 0.0 103039
09:00−19в12820 0.0 1031124
12:00−12св11610 0.0 1031372
15:00−9с125913 0.0 1031601
18:00−11ссз12759 0.0 103021
21:00−15св11836 0.0 103220
11 марта, чт
чт1100:00−16вюв118518 0.0 103220
03:00−16юв22889 0.0 103221
06:00−17ююв23910 0.0 103146
09:00−14ююв36800 0.0 1030241
12:00−8ю49600 0.0 1028571
15:00−6ю595829 0.0 1026780
18:00−7ююв4106996 0.0 1024599
21:00−10ююв5137948 0.0 1022474
12 марта, пт
пт1200:00−11ююв514820 0.0 1020474
03:00−11ююв5148318 0.0 1018532
06:00−10ююв6157698 0.0 1014595
09:00−8ююв7167099 0.0 1011790
12:00−7ююв71591100 0.6 1008804
15:00−5ююв71390100 1.8 10061048
18:00−4ююв61292100 0.6 1004928
21:00−3ю51294100 1.6 1003600